Regional Weather Roundup
Issued by NWS

Home | Current Version | Previous Version | Text Only | Print | Product List | Glossary On
Versions: 1 2 3 4 5 6 7 8 9 10 11 12 13 14 15 16 17 18 19 20 21 22 23 24 25 26 27 28 29 30 31 32 33 34 35 36 37 38 39 40 41 42 43 44 45 46 47 48 49 50
000
ASUS46 KSEW 291010
RWRWA

WASHINGTON REGIONAL WEATHER ROUNDUP
NATIONAL WEATHER SERVICE SEATTLE WA
300 AM PDT WED JUL 29 2015

NOTE:"FAIR" INDICATES FEW OR NO CLOUDS BELOW 12,000 FEET WITH NO
SIGNIFICANT WEATHER AND/OR OBSTRUCTIONS TO VISIBILITY.

WAZ505-507>509-291100-
SEATTLE, TACOMA, EVERETT, AND VICINITY

CITY           SKY/WX    TMP DP  RH WIND       PRES   REMARKS
EVERETT        CLEAR     61  51  70 NE7       30.21S
BOEING FIELD   CLEAR     66  53  63 CALM      30.19S
RENTON         CLEAR     61  54  77 CALM      30.18F
SEATAC AIRPORT CLEAR     64  53  67 NE7       30.19F
JBLM-MCCHORD   CLEAR     54  48  80 S2        30.18F
PUYALLUP       FAIR      54  52  94 CALM      30.19F
BREMERTON      CLEAR     55  50  82 CALM      30.22S
JBLM-FT LEWIS  CLEAR     55  48  78 SE5       30.17F
TACOMA NARROWS CLEAR     63  53  70 N5        30.18F
$$

WAZ001-503-506-510-514-515-291100-
NORTH INTERIOR

CITY           SKY/WX    TMP DP  RH WIND       PRES   REMARKS
BELLINGHAM     CLEAR     60  55  83 S3        30.18F
FRIDAY HARBOR  CLEAR     51  50  96 W5        30.20S
EASTSOUND      LGT RAIN  57  54  88 CALM      30.17S
PORT ANGELES   FOG       54  53  97 W5        30.21R VSB 1/4
PORT TOWNSEND  CLOUDY    48  48 100 CALM      30.19F
NAS WHIDBEY    FOG       56  54  93 SE3       30.23F VSB 1/4
ARLINGTON      CLEAR     54  46  76 CALM      30.22S
BURLINGTON     CLEAR     54  54 100 CALM      30.20F
$$

WAZ020-022-039-040-504-511-512-291100-
SOUTHWEST INTERIOR

CITY           SKY/WX    TMP DP  RH WIND       PRES   REMARKS
SHELTON        CLEAR     51  49  92 CALM      30.17S
OLYMPIA        CLEAR     55  50  83 CALM      30.18F
CHEHALIS       FAIR      55  55 100 CALM      30.17F
KELSO          CLEAR    N/A N/A N/A CALM      30.17S
VANCOUVER      CLEAR     63  49  60 CALM      30.11F
SCAPPOOSE, OR  CLEAR     70  50  49 NW10G20   30.11F
PORTLAND, OR   CLEAR     67  51  56 NW6       30.12S
$$

WAZ021-516-517-291100-
WASHINGTON COAST

CITY           SKY/WX    TMP DP  RH WIND       PRES   REMARKS
FORKS          CLOUDY    57  57 100 N3        30.21S
HOQUIAM        CLEAR     56  53  90 CALM      30.18F
ASTORIA, OR    CLEAR     57  56  96 CALM      30.15F
$$

WAZ019-023-024-040-518-519-291100-
CASCADE MOUNTAINS AND COLUMBIA GORGE

CITY           SKY/WX    TMP DP  RH WIND       PRES   REMARKS
TROUTDALE, OR  CLEAR     62  55  77 CALM      30.11S
THE DALLES, OR CLEAR     63  43  48 SE7       30.12S
$$

WAZ026-027-041>044-520-521-291100-
EAST SLOPES

CITY           SKY/WX    TMP DP  RH WIND       PRES   REMARKS
OMAK           CLEAR     60  39  45 W5        30.15S
WENATCHEE      CLEAR     70  48  45 NW10      30.15S
ELLENSBURG     CLEAR     59  43  55 CALM      30.18S
YAKIMA         CLEAR     53  42  66 W7        30.16S
$$

WAZ028-034-035-291100-
COLUMBIA BASIN

CITY           SKY/WX    TMP DP  RH WIND       PRES   REMARKS
EPHRATA        CLEAR     60  39  45 N5        30.14S
MOSES LAKE     CLEAR     56  39  53 N5        30.14F
PASCO          CLEAR     53  47  79 N3        30.13S
HERMISTON, OR  CLEAR     58  39  49 SE5       30.12F
$$

WAZ036>038-291100-
NORTHEAST WASHINGTON

CITY           SKY/WX    TMP DP  RH WIND       PRES   REMARKS
SPOKANE GEIGER PTCLDY    60  36  40 SE6       30.20R
SPOKANE FELTS  CLEAR     57  41  55 NE5       30.20R
FAIRCHILD AFB  CLEAR     57  40  53 CALM      30.19S
COEURDALENE,ID CLEAR     54  43  66 E3        30.20S
DEER PARK      CLEAR     47  36  65 NW3       30.19S
$$

WAZ029>033-291100-
SOUTHEAST WASHINGTON

CITY           SKY/WX    TMP DP  RH WIND       PRES   REMARKS
PULLMAN        CLEAR     53  36  52 NE3       30.22S
LEWISTON, ID   CLEAR     58  33  39 S6        30.17S
WALLA WALLA    CLEAR     64  38  38 E7        30.14S
PENDLETON, OR  CLEAR     59  37  44 SE10      30.16S
$$


USA.gov is the U.S. government's official web portal to all federal, state and local government web resources and services.